User: anonymous   Login
Location: Unspecified
(0.0000°N, 0.0000°E)
Time: 00:58:41
(UTC+00:00)
Language:

STARLINK-1577 - Orbit

View from above orbital plane
View from above orbital plane
View from above satellite
View from above satellite

Ground track
Ground track

The orbit is defined by the following mean orbital elements,

1 46063U          26145.36296367 +.00000000 +00000-0 +22862-4 0 00006
2 46063  53.1605 117.2694 0001289 111.2800 248.8339 15.31699072    04
Epoch (UTC): 25 May 2026 08:42:40
Eccentricity: 0.0001289
inclination: 53.1605°
perigee height: 470 km
apogee height: 472 km
right ascension of ascending node: 117.2694°
argument of perigee: 111.2800°
revolutions per day: 15.31699072
mean anomaly at epoch: 248.8339°

The dashed part of the orbit path shows where the satellite is in the earth's shadow,  

DLR